Location: *
(44.1392°N, 4.8079°E)
Time: 07:41:21
(UTC+00:00)

Nadezhda 4 Rocket - Pass Details

Date: 21 June 2021
Orbit: 950 x 991 km, 82.9° (Epoch: 31 July)

Event Time Altitude Azimuth Distance (km) Brightness Sun altitude
Exits shadow 00:54:47 37° 190° (S) 1,443 4.4 -20.4°
Maximum altitude 00:57:24 86° 276° (W) 963 3.9 -20.3°
Drops below altitude 10° 01:03:34 10° 7° (N) 2,686 7.5 -19.9°
Sets 01:06:04 0° 8° (N) 3,635 8.5 -19.8°
